This demonstration page uses our WeatherBlox Daily Observations layout. Learn more.

Left ArrowRight Arrow

Hourly Observations for March 28, 2016

Temp ( °F °C ) Dew Point ( °F °C ) Humidity (%) Winds ( mph kmh ) Pressure ( in mb ) Visibility ( mi km ) Precip ( " mm )
12:06 am 00:06 Cloudy with Heavy Rain 52 11.1 50 10 93 93 NW 13 20 29.83 1010 3 5 0.07 1.78
12:53 am 00:53 Cloudy with Light Rain 52 11.1 49 9.4 89 89 WNW 9 15 29.80 1009 6 10 0.14 3.56
1:53 am 01:53 Mostly Cloudy 51 10.6 49 9.4 92 92 W 9 15 29.81 1009 10 16 N/A
2:53 am 02:53 Cloudy 49 9.4 44 6.7 83 83 W 16 26 29.85 1011 10 16 N/A
3:53 am 03:53 Cloudy 47 8.3 41 5 80 80 WNW 17 28 29.87 1011 10 16 N/A
4:53 am 04:53 Cloudy 46 7.8 40 4.4 79 79 W 7 11 29.90 1012 10 16 N/A
5:53 am 05:53 Cloudy 45 7.2 39 3.9 80 80 W 13 20 29.93 1014 10 16 N/A
6:04 am 06:04 Cloudy 45 7.2 39 3.9 80 80 W 9 15 29.97 1015 10 16 N/A
6:53 am 06:53 Cloudy 46 7.8 39 3.9 77 77 W 12 19 29.95 1014 10 16 N/A
7:53 am 07:53 Cloudy 46 7.8 39 3.9 77 77 W 12 19 29.98 1015 10 16 N/A
8:53 am 08:53 Cloudy 47 8.3 39 3.9 74 74 W 10 17 30.00 1016 10 16 N/A
9:18 am 09:18 Cloudy 47 8.3 39 3.9 74 74 W 12 19 30.06 1018 10 16 N/A
9:33 am 09:33 Cloudy 47 8.3 39 3.9 74 74 W 10 17 30.06 1018 10 16 N/A
9:53 am 09:53 Cloudy 47 8.3 38 3.3 71 71 W 12 19 30.02 1017 10 16 N/A
10:53 am 10:53 Cloudy 49 9.4 39 3.9 69 69 W 10 17 30.04 1017 10 16 N/A
11:53 am 11:53 Cloudy 49 9.4 39 3.9 69 69 W 12 19 30.07 1018 10 16 N/A
12:53 pm 12:53 Cloudy 50 10 38 3.3 63 63 W 13 20 30.09 1019 10 16 N/A
1:53 pm 13:53 Cloudy 50 10 38 3.3 63 63 W 10 17 30.10 1019 10 16 N/A
2:53 pm 14:53 Cloudy 50 10 37 2.8 61 61 WNW 14 22 30.11 1020 10 16 N/A
3:53 pm 15:53 Cloudy 51 10.6 38 3.3 61 61 WNW 14 22 30.11 1020 10 16 N/A
4:53 pm 16:53 Cloudy 51 10.6 38 3.3 61 61 W 13 20 30.12 1020 10 16 N/A
5:53 pm 17:53 Cloudy 50 10 38 3.3 63 63 WNW 12 19 30.14 1021 10 16 N/A
6:53 pm 18:53 Cloudy 50 10 38 3.3 63 63 WNW 13 20 30.15 1021 10 16 N/A
7:53 pm 19:53 Cloudy 49 9.4 39 3.9 69 69 WNW 8 13 30.15 1021 10 16 N/A
8:53 pm 20:53 Cloudy 49 9.4 38 3.3 66 66 W 7 11 30.16 1022 10 16 N/A
9:53 pm 21:53 Cloudy 47 8.3 39 3.9 74 74 NW 5 7 30.19 1022 10 16 N/A
10:53 pm 22:53 Cloudy 47 8.3 37 2.8 69 69 NW 6 9 30.19 1022 10 16 N/A
11:53 pm 23:53 Cloudy 47 8.3 36 2.2 66 66 NW 5 7 30.20 1023 10 16 N/A

Powered by AerisWeather